User: anonymous   Login
Location: Saint-Morand
(47.8012°N, 1.2794°W)
Time: 15:06:09
(UTC+00:00)
Language:

Cosmos 2242 Rocket - Orbit

View from above orbital plane
View from above orbital plane
View from above satellite
View from above satellite

Ground track
Ground track

The orbit data is extracted from the following two-line orbital elements,

1 22627U 93024B   21137.64166255  .00000071  00000-0  66633-5 0  9993
2 22627  82.5247 211.6579 0022800 336.9795  23.0393 14.78207415513462
Epoch (UTC): 17 May 2021 15:23:59
Eccentricity: 0.0022800
inclination: 82.5247°
perigee height: 619 km
apogee height: 651 km
right ascension of ascending node: 211.6579°
argument of perigee: 336.9795°
revolutions per day: 14.78207415
mean anomaly at epoch: 23.0393°
orbit number at epoch: 51346

The dashed part of the orbit path shows where the satellite is in the earth's shadow,  

DLR